Regional Weather Roundup
Issued by NWS

Home | Current Version | Previous Version | Graphics & Text | Print | Product List | Glossary On
Versions: 1 2 3 4 5 6 7 8 9 10 11 12 13 14 15 16 17 18 19 20 21 22 23 24 25 26 27 28 29 30 31 32 33 34 35 36 37 38 39 40 41 42 43 44 45 46 47 48 49
000
ASUS45 KSLC 232010
RWRUT

UTAH REGIONAL WEATHER ROUNDUP
NATIONAL WEATHER SERVICE SALT LAKE CITY UT
200 PM MDT MON MAY 23 2016

UTZ001>011-023>025-232100-

NORTHERN UTAH

CITY           SKY/WX    TMP DP  RH WIND       PRES   REMARKS
BRIGHAM CITY     N/A     62  33  33 E3        29.90F
DUGWAY         MOSUNNY   69  29  22 S5        29.87F
HILL AFB       MOSUNNY   61  28  29 VRB5      29.90F
LOGAN          SUNNY     61  33  35 CALM      29.90F
OGDEN          MOSUNNY   64  31  28 N7        29.89F
PROVO AIRPORT  MOSUNNY   61  30  31 VRB5      29.89F
SALT LAKE CITY PTSUNNY   64  30  27 VRB3      29.88F
VERNAL         SUNNY     63  26  24 E3        29.90F
WENDOVER       MOSUNNY   63  32  31 SE9       29.88F
HEBER CITY     PTSUNNY   66  25  20 SW15      29.88S
WEST JORDAN    SUNNY     63  28  27 CALM      29.90F

$$

UTZ012>022-026-027-232100-

SOUTHERN/CENTRAL UTAH

CITY           SKY/WX    TMP DP  RH WIND       PRES   REMARKS
BLANDING       SUNNY     68  17  14 S8G21     30.00F
BRYCE CANYON   SUNNY     61  15  16 S12G23    29.97F
CEDAR CITY     SUNNY     68  20  16 W15G25    29.88F
DELTA          SUNNY     64  27  24 CALM      29.87F
HANKSVILLE     SUNNY     72  19  14 S6        29.87F
MILFORD        SUNNY     68  19  15 VRB6      29.87F
MOAB/CYNLANDS  SUNNY     72  20  14 MISG      29.83F
PRICE          MOSUNNY   65  18  16 SW12G17   29.90F
ST GEORGE      MOCLDY    77  25  14 NW10      29.82F
KANAB          SUNNY     72  14  11 SW10      29.92F

$$

REGIONAL REPORTS     COLORADO/ARIZONA

CITY           SKY/WX    TMP DP  RH WIND       PRES   REMARKS
CRAIG, CO      SUNNY     63  27  25 MISG      29.92F
GRAND JUNCTION SUNNY     71  26  18 W9        29.85F
RIFLE          MOSUNNY   67  21  17 W16       29.87F
MONTROSE       MOSUNNY   70  21  15 S12       29.90F
CORTEZ         SUNNY     69  18  14 SW12G21   29.94F
PAGE, AZ       SUNNY     73  15  11 N12       29.84F
GRAND CANYON   SUNNY     66  10  11 S15G24    29.99F
KINGMAN        SUNNY     77  23  13 SW23G35   29.85F
FLAGSTAFF      SUNNY     59  15  18 SW13G22   30.02F

$$

REGIONAL REPORTS    NEVADA/IDAHO/WYOMING

CITY           SKY/WX    TMP DP  RH WIND       PRES   REMARKS
LAS VEGAS, NV  MOSUNNY   80  27  14 S5        29.74F
ELY            CLOUDY    59  25  27 SE18      29.89F
ELKO           PTSUNNY   61  28  28 VRB3      29.86F
POCATELLO, ID  MOSUNNY   61  32  33 W13       29.90F
BURLEY         MOSUNNY   62  34  35 VRB7      29.87F
EVANSTON, WY   CLOUDY    54  29  38 W15       29.95F
ROCK SPRINGS   CLOUDY    57  26  30 SW12      29.95F
KEMMERER         N/A     50  27  40 W14G25    29.97F

$$



USA.gov is the U.S. government's official web portal to all federal, state and local government web resources and services.